Location: Warwick
(41.7000°N, 71.4170°W)
Time: 06:03:04
(UTC-05:00)

OTV 5 (USA 277) - Visible Passes

Search period start: 18 February 2018 00:00
Search period end: 28 February 2018 00:00
Orbit: 404 x 417 km, 43.0° (Epoch: 07 September)

Date Brightness Start Highest point End Pass type
(mag) Time Alt. Az. Time Alt. Az. Time Alt. Az.
18 Feb ? 05:30:30 10° SSE 05:31:17 11° SE 05:32:04 10° SE visible
20 Feb ? 05:23:25 10° SSW 05:26:07 24° SSE 05:28:50 10° E visible
21 Feb ? 04:34:43 16° SSE 04:35:12 16° SE 04:37:21 10° ESE visible
22 Feb ? 05:19:05 20° SW 05:21:06 48° SSE 05:24:18 10° E visible
23 Feb ? 04:30:34 32° SE 04:30:34 32° SE 04:33:08 10° E visible
24 Feb ? 05:14:44 30° WSW 05:16:13 86° SSE 05:19:31 10° ENE visible
25 Feb ? 04:26:04 42° E 04:26:04 42° E 04:28:27 10° E visible
26 Feb ? 05:10:07 33° W 05:11:26 70° N 05:14:43 10° E visible
27 Feb ? 04:21:23 40° ENE 04:21:23 40° ENE 04:23:38 10° ENE visible
27 Feb ? 05:54:28 10° WNW 05:57:46 76° N 06:01:03 10° E visible
